EST,Max TemperatureF,Mean TemperatureF,Min TemperatureF,Max Dew PointF,MeanDew PointF,Min DewpointF,Max Humidity, Mean Humidity, Min Humidity, Max Sea Level PressureIn, Mean Sea Level PressureIn, Min Sea Level PressureIn, Max VisibilityMiles, Mean VisibilityMiles, Min VisibilityMiles, Max Wind SpeedMPH, Mean Wind SpeedMPH, Max Gust SpeedMPH,PrecipitationIn, CloudCover, Events, WindDirDegrees
2012-12-1,62,52,41,45,41,37,100,63,39,30.41,30.36,30.33,10,8,4,5,0,,0.00,0,,258
2012-12-2,66,60,53,57,48,46,100,67,49,30.40,30.34,30.26,10,7,2,12,1,,0.00,1,,190
2012-12-3,73,64,55,61,52,50,100,67,44,30.30,30.26,30.23,10,10,7,6,1,,0.00,4,,218
2012-12-4,69,61,53,59,53,52,100,70,53,30.33,30.26,30.20,10,9,2,9,1,,0.00,2,,197
2012-12-5,64,58,53,59,54,46,100,82,68,30.22,30.18,30.14,10,8,0,8,2,,0.00,6,Fog-Rain,325
2012-12-6,48,40,33,43,33,32,100,71,54,30.36,30.28,30.22,10,9,0,10,4,,0.00,4,Fog,41
2012-12-7,55,48,42,50,42,36,100,79,67,30.24,30.12,30.00,10,10,7,5,2,,0.00,8,,35
2012-12-8,62,58,53,55,52,52,100,77,68,30.07,30.01,29.97,10,6,1,6,1,,0.00,4,Rain,213
2012-12-9,71,66,62,63,57,54,100,72,64,30.14,30.08,30.01,10,8,3,9,2,,0.02,5,Rain,186
2012-12-10,69,66,64,68,58,55,100,75,60,30.00,29.81,29.71,10,8,1,12,6,20,0.00,5,,197
2012-12-11,64,57,50,61,44,37,100,64,45,30.16,29.94,29.74,10,10,10,9,4,,0.00,7,,355
2012-12-12,48,42,37,37,34,30,100,68,57,30.34,30.28,30.16,10,9,5,13,8,18,0.15,8,Rain,21
2012-12-13,50,44,37,37,34,32,100,69,58,30.39,30.34,30.29,10,8,4,12,7,17,0.21,5,Rain,359
2012-12-14,55,44,33,37,29,21,100,59,26,30.38,30.30,30.25,10,10,7,4,0,,0.00,0,,239
2012-12-15,53,47,41,37,33,30,87,56,41,30.28,30.18,30.11,10,10,10,6,1,,0.00,4,,128
2012-12-16,50,49,46,43,40,37,87,72,62,30.10,30.01,29.91,10,6,2,8,3,,0.11,8,Rain,198
2012-12-17,60,60,60,61,57,54,100,88,77,29.91,29.79,29.63,10,8,2,10,3,16,0.15,6,Rain,204
2012-12-18,60,48,37,59,37,30,100,57,39,29.91,29.75,29.65,10,10,10,10,4,24,0.00,3,,262
2012-12-19,64,48,33,37,33,32,100,62,30,30.16,30.02,29.89,10,10,10,8,2,16,0.00,0,,258
2012-12-20,53,45,37,54,43,36,100,82,62,30.19,29.96,29.44,10,9,5,24,4,33,0.23,3,Rain,119
2012-12-21,57,46,35,55,27,19,94,54,39,29.78,29.62,29.46,10,10,3,16,10,30,0.26,4,Rain,262
2012-12-22,48,42,35,23,20,18,60,45,30,30.08,29.97,29.79,10,10,10,13,7,25,0.00,0,,279
2012-12-23,55,42,30,27,20,14,69,41,20,30.14,30.07,30.02,10,10,10,10,3,,0.00,1,,226
2012-12-24,51,46,42,48,36,27,94,63,46,30.05,29.98,29.91,10,10,10,9,2,,0.00,7,Rain,196
2012-12-25,59,52,44,50,43,36,100,76,48,30.14,30.05,29.93,10,10,4,10,3,,0.00,3,Rain,42
2012-12-26,44,43,42,43,38,36,100,80,71,30.11,29.72,29.43,10,7,1,16,8,24,1.11,8,Rain,18
2012-12-27,46,40,32,39,31,27,100,70,50,30.08,29.88,29.61,10,10,10,12,7,25,0.00,1,,280
2012-12-28,42,34,26,34,29,25,100,76,57,30.20,30.10,30.03,10,10,10,6,1,,0.00,2,,157
2012-12-29,50,44,37,46,34,28,100,71,57,30.01,29.80,29.65,10,8,2,9,3,18,0.27,6,Rain,292
2012-12-30,44,38,32,28,21,18,70,52,34,30.35,30.19,29.93,10,10,10,12,6,18,0.00,0,,290
2012-12-31,53,44,35,27,24,19,60,41,26,30.37,30.21,30.10,10,10,10,9,5,16,0.00,2,,211